Temp
-4 -4 -4 -4 -4 -5 -5 -5 -5 -4 -5 -4 -4 -5 -4 -4 -4 -4 -4 -4 -4 -5 -5 -5 -5 -6 -6 -6 -6 -7 -7 -7 -7 -8 -8 -8 -8 -8 -9 -9 -7 -7 -7
-6 -5 -4 -4 -4 -4 -5 -5 -5 -4 -4 -5 -5 -4 -4 -4 -5 -4 -4 -4 -4 -5 -5 -5 -6 -5 -6 -6 -6 -7 -7 -7 -7 -6 -7 -7 -8 -8 -7 -7 -7 -8 -7
-6 -6 -5 -5 -5 -5 -5 -5 -5 -5 -4 -4 -5 -4 -5 -4 -4 -5 -5 -5 -5 -5 -5 -5 -5 -5 -6 -6 -6 -6 -7 -6 -6 -6 -6 -7 -7 -7 -7 -7 -7 -7 -7
-5 -6 -6 -6 -6 -5 -5 -5 -5 -5 -5 -4 -4 -4 -4 -4 -4 -4 -4 -5 -5 -5 -5 -5 -5 -5 -5 -5 -6 -6 -6 -6 -6 -6 -6 -6 -6 -7 -7 -7 -6 -7 -7
-5 -5 -6 -6 -6 -6 -5 -5 -5 -5 -5 -5 -5 -5 -5 -4 -4 -5 -5 -5 -5 -5 -5 -5 -5 -5 -5 -6 -6 -6 -6 -6 -6 -5 -5 -5 -6 -6 -7 -6 -6 -7 -7
-5 -5 -6 -6 -6 -7 -6 -6 -5 -5 -5 -5 -5 -5 -5 -5 -5 -5 -5 -5 -5 -5 -5 -5 -5 -5 -5 -5 -6 -6 -5 -5 -5 -6 -6 -6 -6 -7 -6 -6 -7 -7 -7
-5 -6 -6 -6 -6 -6 -7 -6 -6 -6 -5 -5 -5 -5 -5 -6 -5 -6 -6 -5 -5 -5 -5 -5 -5 -5 -5 -5 -5 -5 -5 -5 -6 -6 -6 -6 -6 -7 -7 -7 -7 -7 -8
-7 -6 -6 -7 -7 -7 -7 -7 -7 -7 -6 -6 -6 -6 -6 -6 -6 -7 -7 -6 -6 -5 -5 -5 -5 -5 -5 -5 -5 -5 -6 -6 -6 -6 -5 -6 -6 -6 -7 -7 -8 -8 -7
-7 -7 -7 -7 -7 -7 -7 -7 -7 -7 -7 -7 -7 -7 -6 -6 -6 -7 -7 -6 -6 -6 -6 -6 -6 -6 -6 -6 -6 -6 -6 -6 -6 -6 -6 -7 -7 -7 -7 -8 -8 -7 -7
-7 -7 -6 -7 -7 -7 -7 -7 -6 -6 -7 -7 -7 -7 -6 -7 -6 -7 -7 -7 -6 -7 -7 -6 -6 -6 -6 -6 -6 -6 -6 -7 -6 -7 -7 -7 -7 -7 -7 -8 -7 -7 -8
-6 -7 -7 -7 -8 -7 -7 -7 -7 -6 -6 -6 -7 -8 -7 -7 -8 -8 -6 -5 -6 -6 -6 -6 -6 -7 -8 -7 -7 -6 -6 -6 -7 -7 -7 -8 -7 -7 -8 -8 -8 -8 -8
-8 -8 -7 -7 -8 -8 -7 -6 -5 -6 -6 -7 -7 -9 -8 -7 -6 -7 -7 -6 -5 -6 -6 -6 -5 -7 -8 -8 -7 -7 -7 -7 -7 -7 -7 -7 -6 -7 -8 -8 -8 -8 -8
-8 -8 -7 -7 -8 -8 -7 -7 -7 -8 -8 -9 -8 -8 -8 -8 -8 -7 -7 -6 -5 -6 -6 -6 -6 -6 -7 -6 -7 -7 -8 -7 -7 -7 -7 -7 -7 -7 -8 -8 -8 -7 -8
-8 -9 -9 -8 -8 -9 -8 -8 -7 -8 -8 -8 -8 -8 -9 -8 -8 -7 -7 -8 -7 -7 -7 -7 -7 -7 -7 -8 -8 -7 -7 -7 -7 -8 -8 -8 -7 -7 -7 -8 -8 -7 -8
-8 -8 -8 -8 -8 -8 -8 -8 -8 -9 -9 -9 -9 -9 -9 -8 -9 -8 -8 -8 -7 -7 -7 -7 -7 -7 -7 -8 -8 -8 -8 -7 -8 -8 -8 -7 -7 -7 -7 -8 -8 -8 -7
-9 -9 -9 -8 -9 -10 -10 -9 -9 -10 -9 -9 -9 -9 -9 -9 -9 -9 -9 -8 -8 -9 -9 -8 -8 -8 -8 -8 -8 -8 -8 -8 -8 -8 -8 -8 -7 -8 -7 -7 -8 -8 -8
-10 -10 -10 -9 -9 -8 -9 -9 -9 -10 -10 -10 -9 -9 -9 -9 -9 -9 -9 -9 -8 -9 -9 -9 -9 -8 -8 -8 -8 -9 -9 -8 -8 -7 -8 -8 -8 -8 -8 -8 -8 -8 -8
-11 -12 -12 -12 -12 -12 -11 -11 -10 -10 -10 -10 -11 -11 -11 -10 -10 -10 -9 -9 -9 -9 -9 -9 -10 -9 -8 -8 -8 -9 -9 -9 -8 -8 -8 -8 -8 -8 -8 -8 -8 -8 -8
-13 -13 -13 -12 -12 -12 -12 -12 -11 -11 -11 -11 -11 -11 -11 -11 -11 -10 -9 -9 -9 -9 -9 -9 -8 -9 -9 -8 -8 -8 -8 -8 -8 -8 -8 -8 -8 -8 -8 -8 -8 -8 -8
-13 -13 -13 -13 -13 -13 -12 -12 -12 -12 -12 -12 -12 -12 -12 -12 -12 -12 -11 -10 -9 -9 -9 -9 -9 -9 -9 -9 -9 -9 -8 -8 -8 -8 -8 -8 -8 -8 -8 -9 -8 -8 -8
-15 -14 -14 -14 -13 -13 -13 -13 -13 -13 -13 -13 -12 -12 -12 -12 -12 -12 -11 -11 -11 -10 -10 -10 -9 -9 -9 -9 -8 -9 -8 -8 -8 -8 -8 -8 -8 -8 -8 -8 -8 -8 -8
-15 -15 -15 -15 -14 -14 -14 -14 -14 -13 -13 -13 -13 -13 -13 -13 -13 -13 -12 -12 -12 -11 -11 -11 -10 -10 -10 -10 -10 -9 -9 -9 -9 -9 -9 -8 -8 -8 -8 -9 -8 -9 -9
-15 -15 -15 -15 -15 -15 -15 -15 -14 -14 -14 -14 -14 -13 -13 -14 -14 -13 -14 -13 -13 -13 -13 -12 -12 -11 -11 -11 -10 -10 -9 -9 -9 -9 -9 -9 -9 -9 -9 -9 -9 -9 -9
-15 -15 -15 -15 -15 -15 -15 -15 -14 -14 -14 -14 -14 -14 -14 -14 -14 -14 -13 -14 -14 -14 -14 -13 -13 -12 -12 -12 -11 -11 -10 -10 -10 -10 -10 -9 -9 -10 -9 -9 -10 -9 -10
-16 -15 -15 -15 -15 -15 -14 -14 -14 -14 -14 -14 -14 -14 -14 -14 -15 -15 -15 -15 -15 -14 -14 -14 -14 -14 -13 -13 -13 -13 -12 -12 -11 -11 -11 -10 -10 -11 -11 -10 -10 -10 -11
-17 -16 -16 -16 -16 -16 -16 -16 -16 -16 -15 -15 -15 -15 -15 -16 -15 -15 -15 -15 -15 -16 -15 -15 -15 -15 -15 -14 -14 -14 -14 -14 -13 -13 -13 -12 -12 -12 -12 -12 -12 -11 -11
Height
5925 5928 5930 5933 5935 5938 5940 5943 5944 5949 5952 5952 5956 5957 5958 5960 5961 5962 5964 5966 5967 5967 5968 5968 5967 5968 5968 5967 5965 5964 5962 5959 5958 5956 5951 5948 5946 5940 5936 5931 5927 5922 5917
5919 5923 5925 5927 5931 5933 5936 5937 5939 5942 5946 5948 5949 5951 5953 5954 5956 5958 5959 5960 5961 5962 5962 5963 5963 5962 5962 5960 5959 5958 5956 5952 5951 5952 5949 5944 5941 5936 5931 5925 5921 5917 5912
5913 5917 5919 5921 5924 5927 5930 5933 5935 5936 5939 5943 5945 5947 5948 5950 5951 5952 5952 5954 5954 5955 5955 5955 5955 5955 5954 5953 5951 5950 5948 5945 5942 5942 5943 5939 5936 5931 5927 5922 5917 5911 5905
5907 5911 5914 5916 5918 5920 5923 5926 5929 5930 5934 5935 5938 5940 5942 5944 5944 5945 5946 5946 5947 5947 5948 5948 5948 5947 5946 5946 5944 5943 5941 5939 5937 5936 5934 5931 5929 5925 5921 5915 5911 5904 5900
5900 5904 5908 5909 5911 5914 5918 5920 5922 5924 5926 5928 5930 5933 5935 5936 5937 5938 5938 5939 5941 5941 5942 5942 5942 5941 5940 5939 5937 5936 5934 5932 5930 5930 5928 5925 5922 5919 5913 5909 5903 5900 5896
5896 5898 5901 5903 5905 5908 5910 5913 5916 5918 5919 5921 5923 5925 5927 5928 5928 5928 5930 5932 5932 5933 5933 5933 5933 5934 5932 5931 5929 5928 5927 5926 5924 5921 5921 5918 5915 5910 5905 5902 5898 5894 5889
5891 5893 5896 5898 5899 5902 5904 5906 5910 5911 5911 5914 5915 5916 5918 5918 5918 5919 5920 5922 5924 5924 5926 5926 5926 5926 5924 5923 5921 5920 5919 5919 5916 5912 5911 5910 5909 5904 5900 5897 5894 5888 5877
5886 5888 5890 5893 5895 5897 5899 5902 5903 5904 5906 5906 5907 5908 5909 5909 5907 5905 5905 5908 5912 5914 5914 5915 5916 5915 5914 5913 5912 5913 5914 5912 5909 5905 5904 5903 5900 5896 5892 5890 5888 5882 5866
5878 5881 5883 5886 5889 5891 5893 5895 5896 5897 5898 5898 5899 5902 5905 5904 5901 5900 5900 5900 5900 5903 5904 5903 5902 5904 5904 5903 5903 5905 5906 5905 5899 5898 5897 5896 5892 5889 5886 5885 5881 5877 5869
5864 5870 5873 5877 5881 5883 5885 5887 5888 5887 5888 5889 5893 5895 5896 5895 5888 5887 5889 5887 5887 5888 5889 5891 5891 5890 5890 5890 5892 5894 5896 5894 5894 5891 5890 5889 5884 5882 5880 5878 5876 5875 5870
5861 5862 5865 5867 5872 5874 5876 5878 5878 5880 5877 5872 5874 5883 5882 5884 5885 5884 5883 5880 5879 5877 5876 5874 5872 5874 5878 5880 5881 5883 5886 5887 5885 5885 5884 5882 5878 5876 5874 5873 5872 5870 5867
5854 5856 5857 5859 5861 5863 5866 5867 5855 5855 5824 5864 5869 5871 5874 5874 5874 5873 5873 5871 5862 5861 5861 5859 5827 5850 5861 5869 5870 5871 5876 5878 5878 5878 5878 5875 5873 5870 5868 5867 5866 5866 5864
5841 5849 5845 5852 5852 5854 5856 5858 5854 5852 5848 5855 5860 5860 5862 5865 5865 5865 5862 5856 5853 5849 5852 5858 5844 5844 5853 5857 5859 5860 5869 5871 5871 5871 5870 5868 5867 5864 5862 5861 5860 5860 5858
5829 5833 5838 5841 5841 5844 5847 5849 5849 5845 5847 5848 5851 5854 5856 5856 5855 5852 5851 5850 5849 5846 5843 5844 5846 5846 5847 5850 5854 5858 5861 5865 5864 5863 5864 5862 5860 5858 5856 5855 5854 5855 5854
5816 5818 5825 5828 5829 5829 5833 5837 5836 5838 5841 5844 5847 5848 5846 5841 5841 5843 5844 5844 5842 5840 5842 5843 5846 5846 5842 5845 5850 5853 5854 5857 5856 5857 5858 5856 5854 5853 5850 5848 5847 5847 5845
5802 5805 5809 5813 5815 5817 5823 5823 5821 5827 5830 5831 5833 5835 5835 5834 5833 5834 5835 5836 5836 5835 5833 5832 5832 5837 5840 5843 5845 5845 5846 5847 5848 5849 5849 5849 5849 5846 5845 5844 5841 5841 5839
5788 5790 5793 5796 5801 5805 5807 5809 5813 5814 5815 5818 5819 5820 5823 5823 5823 5823 5826 5826 5827 5828 5829 5829 5829 5831 5833 5836 5837 5837 5836 5837 5838 5839 5838 5838 5839 5838 5836 5836 5835 5833 5831
5776 5777 5780 5783 5785 5787 5791 5794 5798 5799 5801 5802 5803 5804 5806 5808 5809 5810 5812 5814 5817 5817 5818 5820 5821 5823 5824 5825 5824 5824 5825 5827 5827 5826 5827 5827 5828 5828 5827 5826 5825 5824 5822
5763 5765 5767 5769 5772 5775 5775 5777 5779 5783 5786 5787 5789 5789 5791 5793 5792 5793 5797 5798 5799 5803 5804 5804 5806 5807 5810 5811 5812 5812 5812 5811 5811 5811 5812 5813 5815 5816 5816 5815 5815 5814 5813
5750 5751 5753 5755 5756 5758 5759 5761 5764 5766 5766 5768 5770 5774 5776 5777 5775 5776 5780 5782 5782 5784 5788 5790 5790 5790 5792 5793 5794 5794 5795 5796 5796 5796 5798 5799 5799 5800 5801 5802 5801 5803 5801
5736 5736 5739 5740 5742 5743 5744 5745 5748 5750 5751 5751 5750 5752 5755 5758 5758 5758 5764 5768 5767 5768 5769 5770 5773 5774 5775 5776 5776 5777 5778 5777 5779 5779 5780 5782 5783 5784 5785 5785 5786 5787 5789
5724 5725 5724 5726 5727 5728 5729 5728 5729 5731 5732 5732 5732 5734 5736 5738 5738 5738 5740 5745 5748 5750 5750 5750 5753 5755 5754 5755 5757 5757 5757 5759 5759 5761 5761 5762 5764 5765 5767 5767 5768 5770 5772
5710 5711 5712 5712 5711 5712 5712 5712 5712 5712 5714 5715 5715 5715 5718 5718 5718 5719 5719 5721 5725 5729 5732 5730 5728 5733 5735 5735 5737 5736 5738 5739 5740 5741 5742 5743 5744 5746 5747 5747 5750 5752 5754
5698 5698 5699 5698 5697 5695 5695 5695 5695 5694 5694 5695 5696 5696 5696 5697 5698 5698 5699 5700 5701 5704 5707 5708 5708 5710 5712 5713 5715 5713 5715 5716 5718 5720 5722 5723 5725 5727 5729 5729 5730 5734 5736
5683 5683 5683 5682 5681 5679 5678 5676 5675 5674 5675 5675 5674 5674 5676 5677 5676 5676 5678 5678 5680 5682 5683 5685 5687 5688 5691 5693 5694 5694 5694 5695 5696 5699 5701 5703 5705 5707 5709 5712 5715 5718 5720
5667 5666 5665 5663 5662 5661 5660 5658 5655 5654 5653 5652 5651 5650 5651 5651 5652 5653 5655 5655 5656 5659 5661 5663 5665 5667 5670 5673 5674 5674 5673 5675 5676 5678 5680 5682 5685 5687 5690 5691 5693 5697 5702
Wind_Speed
25 27 26 26 25 25 23 21 21 17 15 19 20 19 19 18 19 20 20 20 19 19 18 17 17 18 19 21 21 23 24 25 21 23 27 28 27 31 35 36 37 37 39
26 20 22 25 24 24 25 25 24 23 20 20 21 22 22 21 21 21 20 21 21 20 21 21 21 21 22 24 25 26 26 28 27 20 23 26 27 32 35 38 40 42 41
25 24 24 23 25 24 26 26 27 25 25 23 24 24 25 26 26 26 25 25 24 24 24 23 23 23 24 26 26 28 29 29 29 27 23 26 28 33 35 39 40 40 40
26 25 24 24 25 26 27 27 28 27 25 26 26 26 28 30 29 29 30 30 30 28 28 27 26 26 26 26 27 27 27 28 29 30 30 31 32 36 38 37 36 39 37
27 27 26 27 28 28 27 27 28 29 27 27 28 28 28 29 31 31 31 32 32 32 31 31 30 29 27 26 26 26 29 30 32 33 34 35 35 34 35 35 36 37 35
25 26 25 26 27 29 30 29 27 27 26 25 24 25 25 26 29 30 32 32 33 33 33 33 33 32 31 31 31 30 31 33 34 35 33 31 31 33 35 34 35 33 33
22 24 24 24 25 27 30 29 28 28 26 28 27 26 26 26 28 31 31 32 34 35 34 34 34 33 34 34 35 34 33 31 31 33 33 33 31 34 35 32 31 31 37
24 25 24 22 20 20 19 18 20 21 23 26 26 26 27 27 29 32 34 34 35 36 38 38 38 37 38 38 38 33 29 27 29 32 30 29 30 31 32 29 27 32 37
28 27 28 27 26 25 23 23 25 24 26 28 28 26 29 30 29 30 35 37 37 36 39 41 42 40 37 37 33 31 27 27 30 26 25 26 29 30 29 26 24 28 29
30 32 31 31 30 28 26 25 25 28 33 32 31 34 42 47 30 30 34 38 40 42 45 42 42 37 36 33 30 29 25 26 27 24 23 26 30 27 25 24 24 24 30
34 36 37 36 33 33 30 32 35 34 37 37 31 24 35 36 32 32 33 34 45 48 52 52 52 47 34 32 29 27 25 24 23 21 21 23 26 25 24 24 22 24 28
46 43 46 40 40 38 35 40 42 40 37 36 29 23 26 34 37 38 38 41 51 39 48 50 54 45 38 29 28 27 23 21 22 20 22 25 26 25 22 22 23 25 28
49 49 42 48 48 44 40 44 46 40 39 32 27 26 30 31 31 34 35 39 39 30 41 45 32 39 30 39 22 15 19 22 21 20 22 21 20 19 20 21 24 23 22
59 62 53 64 58 55 50 46 46 45 40 34 32 33 33 36 36 35 39 39 41 34 31 30 24 18 17 13 15 18 23 25 21 20 21 26 23 18 17 18 20 23 23
63 63 59 58 59 50 47 49 51 40 40 40 37 37 39 40 45 44 41 42 43 35 27 27 23 19 16 17 20 24 28 28 26 27 26 26 25 23 18 17 23 21 17
60 57 54 55 52 59 48 45 38 35 38 42 43 43 44 47 51 46 41 39 37 28 23 23 21 22 22 27 29 29 29 29 31 31 29 29 28 26 25 20 20 23 16
55 54 55 55 55 55 53 52 56 56 55 58 60 58 56 54 50 47 40 39 39 40 36 27 30 30 30 34 35 34 33 34 37 38 35 33 32 29 25 22 23 27 25
48 48 48 48 47 50 52 56 59 63 64 61 58 58 58 53 51 49 48 46 44 40 43 39 34 36 39 40 40 40 41 43 42 43 43 42 40 39 37 34 32 33 32
45 48 49 53 54 55 57 59 60 59 59 60 60 61 59 56 55 56 54 54 52 49 48 50 50 47 48 50 49 50 50 48 45 44 44 45 46 47 46 46 44 42 42
42 47 51 52 53 55 57 58 58 58 58 60 61 60 59 57 56 56 56 55 58 58 56 55 57 57 55 51 51 50 52 54 54 51 48 46 47 47 46 48 47 46 46
45 48 48 49 50 51 53 54 55 56 58 59 61 61 58 56 57 58 56 53 56 59 62 62 59 59 61 61 64 62 56 55 56 57 57 57 55 54 55 55 56 55 51
46 46 50 51 52 54 56 58 60 60 59 60 61 60 60 59 58 60 61 58 55 57 60 60 61 62 63 63 61 61 60 56 54 56 58 64 64 63 64 64 61 59 55
44 45 47 49 50 51 53 55 56 58 58 60 61 63 62 63 63 63 63 62 61 61 60 62 65 64 64 64 64 64 63 62 61 61 65 63 58 57 60 64 64 61 60
48 48 49 50 52 54 55 55 56 59 60 61 61 61 62 63 63 64 64 63 62 60 59 59 60 60 61 61 60 61 62 62 61 62 59 58 56 57 58 57 59 61 56
50 52 54 56 57 59 62 64 66 67 67 68 68 68 66 64 64 63 63 64 63 63 63 61 61 62 62 61 62 64 65 63 62 62 61 58 58 59 52 53 54 54 52
47 48 51 53 54 56 59 61 64 69 71 74 74 75 73 72 73 73 71 70 68 65 63 62 62 62 63 65 65 65 67 68 67 65 64 63 61 59 59 57 55 54 53
Wind_Direction
237 239 239 235 234 242 244 244 252 249 247 248 239 235 234 235 239 238 237 241 245 255 262 270 272 275 275 279 284 290 298 302 306 306 309 310 313 317 317 310 312 319 318
242 241 242 242 239 238 246 246 244 249 242 246 248 247 247 244 246 249 247 245 246 249 254 261 266 273 277 280 286 289 294 295 297 295 296 300 310 306 304 310 314 314 313
233 238 245 245 241 239 238 243 246 239 247 241 247 245 247 251 253 253 253 252 249 253 257 259 261 265 271 277 282 286 289 293 297 301 298 297 298 300 305 308 312 311 314
231 238 241 243 245 240 239 236 239 243 238 245 245 248 247 247 249 253 256 256 253 252 256 261 263 268 272 276 280 281 285 289 293 300 303 303 305 304 310 311 309 312 318
236 237 236 237 239 238 238 238 236 239 239 241 248 249 250 253 254 253 255 259 262 263 262 263 265 267 272 275 276 278 283 289 293 298 302 305 308 310 308 308 311 317 319
239 236 237 235 239 238 235 238 239 240 242 246 247 253 258 258 261 261 262 262 263 264 266 267 268 268 268 268 271 275 281 288 294 298 301 301 304 308 306 309 313 319 317
231 228 227 227 231 234 236 239 239 244 245 246 246 249 253 252 258 262 264 265 265 266 267 266 266 267 267 268 270 274 281 289 294 295 299 301 303 301 302 307 315 315 310
224 225 220 221 219 222 228 234 244 247 250 254 251 250 252 252 252 256 258 259 263 265 267 270 268 264 264 266 271 278 283 283 281 285 297 301 302 302 303 309 315 314 317
222 226 231 230 231 235 236 243 247 251 254 252 255 260 265 259 260 264 271 273 269 265 264 265 262 256 260 265 270 273 277 280 281 289 299 309 305 301 306 311 310 314 324
231 226 235 229 233 232 242 250 254 254 255 256 265 273 266 256 249 264 267 276 273 271 265 266 265 258 254 259 259 263 266 270 280 285 290 304 309 302 303 304 308 310 317
234 235 236 231 233 234 232 241 245 251 257 251 249 269 280 259 292 281 297 302 295 283 269 265 258 252 247 246 252 256 260 268 281 292 299 301 306 298 295 299 302 306 312
243 227 234 239 228 234 234 244 250 247 243 239 288 295 287 292 287 297 292 287 298 284 271 270 256 247 230 239 246 251 257 265 274 290 291 298 302 295 292 298 301 302 305
257 242 249 243 240 236 240 248 252 267 274 285 287 291 294 295 296 294 297 300 301 291 267 276 278 250 240 229 241 260 263 271 279 288 288 294 308 302 285 285 300 303 297
252 254 256 248 257 237 241 247 253 258 267 279 283 282 283 289 296 300 304 308 301 292 295 306 292 245 236 239 254 256 269 272 269 276 281 289 297 297 292 291 299 313 322
258 262 262 263 264 243 248 263 246 244 259 263 270 273 279 290 302 304 299 291 303 281 281 269 274 270 263 252 255 262 266 268 273 277 283 283 284 283 279 289 298 310 314
260 262 261 261 263 263 265 262 271 258 258 267 271 273 279 285 291 292 289 287 294 288 289 296 277 268 267 262 259 260 266 269 275 273 277 277 275 280 282 282 289 299 300
259 261 264 265 265 259 261 263 266 270 273 274 276 277 277 279 282 283 281 283 283 280 279 270 269 265 259 263 264 266 269 271 272 272 269 269 267 268 270 265 278 295 298
256 258 259 261 261 263 264 264 264 267 270 273 275 275 276 277 278 278 278 275 275 275 269 266 260 260 261 265 267 269 270 273 274 271 273 271 267 263 267 269 270 280 290
252 255 257 258 260 260 262 264 266 266 268 269 271 273 276 276 275 276 276 276 274 269 268 269 268 274 272 262 263 267 268 268 268 270 270 270 270 269 268 268 270 276 283
257 257 257 259 261 261 263 265 267 269 269 270 270 270 271 271 272 274 277 276 276 275 272 267 268 270 270 267 266 265 267 272 269 268 265 269 268 268 269 273 273 275 276
260 261 259 261 263 266 268 268 268 269 271 272 272 272 271 269 269 269 269 266 267 270 272 272 271 270 269 268 266 269 270 267 265 268 267 266 269 269 271 272 274 279 276
260 261 266 266 265 265 267 268 269 269 269 269 269 269 271 271 271 271 271 270 268 266 267 268 268 268 269 269 269 270 271 269 268 268 273 267 265 265 269 274 270 276 279
261 262 263 265 266 267 268 268 268 268 268 269 271 272 271 270 269 269 271 270 269 269 266 267 269 269 269 270 271 271 271 271 270 272 273 274 275 274 278 269 269 270 275
260 262 264 265 268 269 269 270 269 269 270 270 269 267 267 267 268 268 268 268 267 267 264 260 259 262 263 266 267 266 268 268 268 268 269 266 269 270 274 274 269 270 273
267 265 263 262 263 265 266 267 268 269 269 268 269 268 267 266 266 266 266 266 264 263 262 260 259 257 255 254 257 260 261 261 260 259 259 261 261 259 261 266 268 272 270
268 267 267 267 266 265 266 267 268 269 268 267 266 266 266 266 264 263 263 262 264 264 264 263 260 257 256 253 253 256 259 257 256 254 255 256 256 256 256 254 254 257 261